Location: W�rzburg
(49.7529°N, 9.8822°E)
Time: 20:33:37
(UTC+01:00)

Tiangong 1 - Visible Passes

Search period start: 16 January 2018 00:00
Search period end: 26 January 2018 00:00
Orbit: 264 x 288 km, 42.8° (Epoch: 16 January)

Date Brightness Start Highest point End Pass type
(mag) Time Alt. Az. Time Alt. Az. Time Alt. Az.
16 Jan 3.3 18:00:19 10° S 18:00:51 10° SSE 18:01:23 10° SSE visible
17 Jan 3.1 17:59:23 10° SSW 18:00:41 13° SSE 18:01:58 10° SE visible
18 Jan 3.0 17:58:48 10° SSW 18:00:24 15° S 18:01:58 10° SE visible
19 Jan 3.0 17:58:16 10° SW 17:59:58 16° S 18:01:39 10° SE visible
20 Jan 3.0 17:57:43 10° SW 17:59:24 16° S 18:01:04 10° SE visible
21 Jan 3.2 17:57:06 10° SW 17:58:40 15° S 18:00:13 10° SSE visible
22 Jan 3.4 17:56:31 10° SW 17:57:47 13° SSW 17:59:01 10° SSE visible
23 Jan 3.8 17:56:16 10° SSW 17:56:43 10° SSW 17:57:09 10° S visible
